Weather History for Hettinger, ND

Change the Weather History Date:

Monday, March 4, 2013

  Actual Average Record
Temperature  
Mean Temperature 22 °F -  
Max Temperature 33 °F 36 °F 54 °F (2005)
Min Temperature 11 °F 15 °F -9 °F (2003)
Degree Days  
Heating Degree Days 43 40  
Month to date heating degree days 123 161  
Since 1 July heating degree days 6081 6477  
Cooling Degree Days 0 0  
Month to date cooling degree days 0 0  
Year to date cooling degree days 0 0  
Moisture  
Dew Point 16 °F    
Average Humidity 81    
Maximum Humidity 89    
Minimum Humidity 73    
Precipitation  
Precipitation 0.00 in 0.02 in 0.04 in (2012)
Month to date precipitation 0.19 0.05  
Year to date precipitation 0.32 0.78  
Sea Level Pressure  
Sea Level Pressure 29.87 in    
Wind  
Wind Speed 23 mph (NW)    
Max Wind Speed 38 mph    
Max Gust Speed 46 mph    
Visibility 5 miles    
Events Snow    
T = Trace of Precipitation, MM = Missing Value Source: NWS Daily Summary

Daily Weather History Graph

Daily Weather History Graph

Search for Another Location

Airport:

Trip Planner

Search our weather history database for the weather conditions in past years. The results will help you decide how hot, cold, wet, or windy it might be!

Date:

Astronomy

Mar. 04, 2013 Rise Set
Actual Time 6:23 AM MST 5:41 PM MST
Civil Twilight 5:53 AM MST 6:11 PM MST
Nautical Twilight 5:19 AM MST 6:46 PM MST
Astronomical Twilight 4:44 AM MST 7:21 PM MST
Moon 12:48 AM MST (3/4) 10:11 AM MST (3/4)
Length of Visible Light 12h 18m
Length of Day
11h 18m
Waning Gibbous, 51% of the Moon is Illuminated
Mar 4
Waning Gibbous
Mar 4
Last Quarter
Mar 11
New
Mar 19
First Quarter
Mar 27
Full

Hourly Weather History & Observations

Time (MST) Temp. Windchill Dew Point Humidity Pressure Visibility Wind Dir Wind Speed Gust Speed Precip Events Conditions
12:01 AM 33.8 °F - 30.2 °F 87% 29.64 in 9.0 mi North - - 0.00 in   Overcast
12:53 AM 32.0 °F - 30.0 °F 92% 29.68 in 9.0 mi North - - 0.00 in Snow Light Snow
1:53 AM 30.9 °F - 28.0 °F 89% 29.69 in 10.0 mi North - - 0.00 in   Scattered Clouds
2:53 AM 28.9 °F - 23.0 °F 78% 29.72 in 10.0 mi North - - N/A   Mostly Cloudy
3:53 AM 25.0 °F - 19.9 °F 81% 29.72 in 10.0 mi North - - N/A   Clear
4:53 AM 23.0 °F - 18.0 °F 81% 29.74 in 10.0 mi North - - N/A   Clear
5:36 AM 23.0 °F 11.1 °F 17.6 °F 80% 29.66 in 10.0 mi West 12.7 mph - N/A   Mostly Cloudy
5:53 AM 24.1 °F 10.6 °F 19.0 °F 81% 29.72 in 10.0 mi West 17.3 mph - N/A   Overcast
6:51 AM 26.6 °F 12.4 °F 21.2 °F 80% 29.65 in 9.0 mi West 21.9 mph 29.9 mph 0.00 in Snow Light Snow
6:53 AM 26.1 °F 12.3 °F 21.0 °F 81% 29.71 in 7.0 mi West 19.6 mph - 0.00 in Snow Light Snow
7:01 AM 26.6 °F 12.4 °F 21.2 °F 80% 29.65 in 7.0 mi West 21.9 mph 29.9 mph 0.00 in Snow Light Snow
7:43 AM 26.6 °F 10.0 °F 21.2 °F 80% 29.65 in 3.0 mi West 31.1 mph 35.7 mph 0.00 in Snow Light Snow
7:48 AM 26.6 °F 12.0 °F 21.2 °F 80% 29.66 in 1.8 mi West 23.0 mph 35.7 mph 0.00 in Snow Light Snow
7:53 AM 25.0 °F 8.6 °F 21.0 °F 85% 29.73 in 1.8 mi West 27.6 mph 33.4 mph 0.00 in Snow Light Snow
7:57 AM 24.8 °F 7.6 °F 19.4 °F 80% 29.66 in 3.0 mi West 31.1 mph 42.6 mph 0.00 in Snow Light Snow
8:05 AM 24.8 °F 8.4 °F 17.6 °F 74% 29.66 in 5.0 mi West 27.6 mph 42.6 mph 0.00 in Snow Light Snow
8:39 AM 23.0 °F 6.3 °F 17.6 °F 80% 29.69 in 6.0 mi West 26.5 mph 35.7 mph 0.00 in   Haze
8:53 AM 24.1 °F 6.9 °F 18.0 °F 77% 29.76 in 6.0 mi West 29.9 mph 39.1 mph 0.00 in   Haze
9:24 AM 21.2 °F 2.4 °F 15.8 °F 80% 29.69 in 6.0 mi West 32.2 mph 41.4 mph 0.00 in Snow Light Snow
9:53 AM 23.0 °F 6.3 °F 17.1 °F 78% 29.77 in 7.0 mi West 26.5 mph 36.8 mph 0.00 in Snow Light Snow
10:53 AM 24.1 °F 8.0 °F 18.0 °F 77% 29.78 in 8.0 mi WNW 25.3 mph 31.1 mph 0.00 in   Overcast
11:22 AM 24.8 °F 10.0 °F 19.4 °F 80% 29.70 in 2.0 mi WNW 21.9 mph 28.8 mph 0.00 in Snow Light Snow
11:51 AM 24.8 °F 10.0 °F 19.4 °F 80% 29.71 in 1.8 mi NW 21.9 mph 27.6 mph 0.00 in Snow Light Snow
11:53 AM 23.0 °F 8.3 °F 19.0 °F 85% 29.79 in 1.5 mi NW 19.6 mph 27.6 mph 0.00 in Snow Light Snow
12:40 PM 21.2 °F 2.7 °F 17.6 °F 86% 29.74 in 3.0 mi NNW 31.1 mph 38.0 mph 0.00 in Snow Light Snow
12:51 PM 21.2 °F 3.5 °F 17.6 °F 86% 29.74 in 2.0 mi NNW 27.6 mph 36.8 mph 0.00 in Snow Light Snow
12:53 PM 21.9 °F 4.5 °F 17.1 °F 82% 29.84 in 2.0 mi NNW 27.6 mph 36.8 mph 0.00 in Snow Light Snow
1:02 PM 21.2 °F 3.0 °F 17.6 °F 86% 29.75 in 1.8 mi NW 29.9 mph 40.3 mph 0.00 in Snow Light Snow
1:14 PM 21.2 °F 3.3 °F 17.6 °F 86% 29.76 in 1.5 mi NW 28.8 mph 36.8 mph 0.00 in Snow Light Snow
1:53 PM 21.0 °F 2.4 °F 16.0 °F 81% 29.89 in 2.0 mi NW 31.1 mph 38.0 mph 0.00 in Snow Light Snow
2:03 PM 21.2 °F 3.3 °F 15.8 °F 80% 29.80 in 1.2 mi NW 28.8 mph 39.1 mph 0.00 in Snow Light Snow
2:27 PM 21.2 °F 3.0 °F 15.8 °F 80% 29.82 in 0.8 mi NW 29.9 mph 41.4 mph 0.00 in Snow Light Snow
2:48 PM 21.2 °F 3.5 °F 15.8 °F 80% 29.84 in 0.5 mi NW 27.6 mph 41.4 mph 0.00 in Snow Snow
2:51 PM 21.2 °F 2.7 °F 15.8 °F 80% 29.84 in 1.0 mi NW 31.1 mph 41.4 mph 0.00 in Snow Light Snow
2:53 PM 21.0 °F 3.6 °F 16.0 °F 81% 29.95 in 1.2 mi NW 26.5 mph 41.4 mph 0.00 in Snow Light Snow
5:10 PM 17.6 °F -1.3 °F 12.2 °F 79% 29.98 in - NW 27.6 mph 38.0 mph N/A   Unknown
5:19 PM 17.6 °F -2.2 °F 12.2 °F 79% 29.98 in 1.0 mi NW 31.1 mph 39.1 mph 0.00 in Snow Light Snow
5:27 PM 17.6 °F -2.5 °F 12.2 °F 79% 29.98 in 0.8 mi NW 32.2 mph 42.6 mph 0.00 in Snow Light Snow
5:34 PM 17.6 °F -2.2 °F 12.2 °F 79% 29.99 in 1.0 mi NW 31.1 mph 42.6 mph 0.00 in Snow Light Snow
5:53 PM 17.1 °F -1.7 °F 12.0 °F 81% 30.12 in 2.0 mi NW 26.5 mph 40.3 mph 0.00 in Snow Light Snow
6:01 PM 17.6 °F -1.6 °F 12.2 °F 79% 30.01 in 1.5 mi NW 28.8 mph 38.0 mph 0.00 in Snow Light Snow
6:11 PM 17.6 °F -1.6 °F 12.2 °F 79% 30.02 in 2.0 mi NW 28.8 mph 41.4 mph 0.00 in Snow Light Snow
6:29 PM 15.8 °F -3.7 °F 12.2 °F 86% 30.03 in 3.0 mi NW 27.6 mph 35.7 mph 0.00 in   Overcast
6:53 PM 16.0 °F -2.8 °F 12.0 °F 84% 30.17 in 3.0 mi NW 25.3 mph 35.7 mph 0.00 in   Overcast
7:39 PM 15.8 °F -4.7 °F 10.4 °F 79% 30.06 in 2.0 mi NW 31.1 mph 41.4 mph 0.00 in Snow Light Snow
7:53 PM 16.0 °F -5.3 °F 10.9 °F 81% 30.20 in 1.8 mi NW 34.5 mph 42.6 mph 0.00 in Snow Light Snow
8:05 PM 15.8 °F -5.0 °F 10.4 °F 79% 30.08 in 2.0 mi NW 32.2 mph 44.9 mph 0.00 in Snow Light Snow
8:17 PM 15.8 °F -5.5 °F 10.4 °F 79% 30.09 in 1.8 mi NW 34.5 mph 46.0 mph 0.00 in Snow Light Snow
8:27 PM 15.8 °F -5.0 °F 10.4 °F 79% 30.09 in 3.0 mi NW 32.2 mph 41.4 mph 0.00 in   Overcast
8:46 PM 15.8 °F -5.0 °F 8.6 °F 73% 30.10 in 5.0 mi NW 32.2 mph 38.0 mph 0.00 in   Overcast
8:53 PM 15.1 °F -5.9 °F 9.0 °F 77% 30.23 in 5.0 mi NW 32.2 mph 42.6 mph 0.00 in   Overcast
9:04 PM 14.0 °F -6.2 °F 8.6 °F 79% 30.11 in 6.0 mi NW 27.6 mph 40.3 mph 0.00 in   Overcast
9:53 PM 12.9 °F -7.3 °F 8.1 °F 81% 30.26 in 10.0 mi NW 26.5 mph 38.0 mph 0.00 in Snow Light Snow
10:37 PM 12.2 °F -8.6 °F 6.8 °F 79% 30.15 in 10.0 mi NW 27.6 mph 33.4 mph 0.00 in   Mostly Cloudy
10:53 PM 12.0 °F -8.5 °F 7.0 °F 80% 30.30 in 10.0 mi NW 26.5 mph 33.4 mph 0.00 in   Mostly Cloudy
11:01 PM 12.2 °F -6.7 °F 6.8 °F 79% 30.17 in 10.0 mi NW 21.9 mph 31.1 mph N/A   Scattered Clouds